DUBAISAT-2

Last updated on Fri Jul 11 2025 00:02:28 GMT+0000 (Coordinated Universal Time)

1 39419U 13066D 25191.57604783 .00002038 00000+0 14155-3 0 9991 2 39419 97.4334 187.0673 0013792 120.7924 239.4663 15.06560684634891
UTC large
Height (km)
Speed (km/s)
/
Latitude / Longitude
Inclination (degrees)
Orbital Period (minutes)
Azimuth
Elevation
Range (km)
Doppler Factor

Next 0 passes for location: London (51.5072 / 0.1276)

Sorry there are no passes over London.